{"data":{"norad_id":62806,"epoch":"2026-05-25T04:47:42.230112Z","epoch_age_seconds":61356,"freshness":"FRESH","line1":"1 62806U 25018A   26145.19979433  .00042543  00000+0  14379-2 0  9994","line2":"2 62806  53.1608 314.1370 0001061  68.3269 291.7844 15.30254138 75805","mean_motion":15.30254138,"eccentricity":0.0001061,"inclination_deg":53.1608,"raan_deg":314.137,"arg_perigee_deg":68.3269,"mean_anomaly_deg":291.7844,"bstar":0.0014379,"rev_number":7580,"period_min":94.102016406376,"perigee_km":474.32630437105,"apogee_km":475.78055137984,"semimajor_km":6853.1904278754,"source":"CELESTRAK","updated_at":"2026-05-25T13:38:19.749397Z"}}